Location: Aix-en-Ergny
(50.5839°N, 1.9996°E)
Time: 01:58:23
(UTC+00:00)

Cosmos 1437 Rocket - Pass Details

Date: 23 October 2019
Orbit: 507 x 562 km, 81.2° (Epoch: 17 November)

Event Time Altitude Azimuth Distance (km) Brightness Sun altitude
Rises 04:04:45 0° 170° (S) 2,603 6.3 -23.2°
Reaches altitude 10° 04:06:58 10° 161° (SSE) 1,721 5.4 -22.8°
Maximum altitude 04:10:25 35° 95° (E) 834 4.3 -22.3°
Drops below altitude 10° 04:13:55 10° 28° (NNE) 1,739 5.8 -21.8°
Sets 04:16:10 0° 20° (NNE) 2,635 6.7 -21.4°
